[[{"header":{"parameterUnit":"m.s-1","parameterCategory":1,"la1":30.2991,"la2":30.254,"lo1":-89.0895,"lo2":-89.0444,"dy":0.0017,"dx":0.0017,"nx":28,"ny":28,"refTime":"2023-03-13T21:00:00:Z","depth":0,"parameterNumber":2,"parameterNumberName":"U-component_of_WINDS"},"data":[0,0,0,0,0,0,0,0,0,0,0,0,0,0,0,0,0,0,0,0,0,0,0,0,0,0,0,0,0,0,0,0,0,0,0,0,0,0,0,0,0,0,0,0,0,0,0,0,0,0,0,0,0,0,0,0,0,0,-3.9394,-3.9395,0,-3.946,-3.9461,-3.9461,-3.9344,-3.934,-3.9336,-3.9333,-3.9401,-3.9406,-3.9412,0,0,0,0,0,0,0,0,0,0,0,0,0,-3.9166,-3.9171,-3.9394,-3.9395,-3.9396,-3.946,-3.9461,-3.9462,-3.9345,-3.934,-3.9335,-3.9331,-3.9399,-3.9406,-3.9412,0,0,0,0,0,0,0,0,0,0,0,0,0,-3.9252,-3.9173,-3.9394,-3.9345,-3.9341,-3.946,-3.9461,-3.9462,-3.9346,-3.934,-3.9334,-3.9329,-3.9397,-3.9405,-3.9413,-3.9582,0,0,-3.9438,-3.9442,0,0,0,0,0,0,0,0,-3.9248,-3.9261,-3.9351,-3.9349,-3.9345,-3.9388,-3.9405,-3.9502,-3.9347,-3.9344,-3.9333,-3.9326,-3.9402,-3.9409,-3.9434,-3.9586,-3.9589,-3.9439,-3.9444,-3.9448,-3.945,0,0,0,0,0,0,0,-3.9242,-3.9257,-3.942,-3.9353,-3.9349,-3.932,-3.9325,-3.9423,-3.9405,-3.9344,-3.9336,-3.9345,-3.9398,-3.9427,-3.9435,-3.959,-3.9439,-3.9446,-3.9451,-3.9455,-3.9882,-3.9888,0,0,0,0,0,0,-3.9242,-3.9253,-3.9418,-3.9422,-3.9281,-3.9329,-3.9335,-3.938,-3.9404,-3.9402,-3.935,-3.9339,-3.9416,-3.9426,-3.9437,-3.9636,-3.9448,-3.9455,-3.946,-3.9875,-3.9883,-3.989,0,0,0,0,0,0,-3.9237,-3.9258,-3.9415,-3.9335,-3.9353,-3.9339,-3.939,-3.9384,-3.9412,-3.9408,-3.9405,-3.9382,-3.9411,-3.9425,-3.9547,-3.9637,-3.9459,-3.9467,-3.9868,-3.9878,-3.9886,-4.0037,0,0,0,0,0,0,-3.9231,-3.9257,-3.9321,-3.9338,-3.9358,-3.9525,-3.9396,-3.939,-3.9427,-3.9414,-3.9438,-3.9436,-3.9408,-3.9535,-3.9555,-3.9645,-3.9473,-3.986,-3.9872,-3.9883,-4.0024,-4.0051,-4.0073,0,0,0,0,0,-3.9224,-3.9362,-3.9325,-3.9346,-3.9438,-3.953,-3.9542,-3.9506,-3.9435,-3.9499,-3.9496,-3.9435,-3.9624,-3.9549,-3.957,-3.9664,-3.9854,-3.9869,-3.9882,-4.0013,-4.0045,-4.0073,0,0,0,0,0,0,-3.9357,-3.9363,-3.9323,-3.947,-3.95,-3.951,-3.9591,-3.9542,-3.9594,-3.9579,-3.9533,-3.9539,-3.967,-3.9679,-3.9595,-3.9828,-3.9727,-3.9746,-3.9819,-3.9849,-3.9874,-3.9869,-3.948,0,0,0,0,0,-3.9403,-3.9478,-3.9478,-3.9608,-3.9625,-3.9606,-3.9645,-3.9614,-3.9644,-3.9657,-3.9663,-3.9694,-3.976,-3.9805,-3.9865,-4.0024,-4.0027,-4.0099,-4.0124,-4.0144,-4.0162,-4.0246,-4.0278,-3.9937,-3.9937,-3.9937,0,0,-3.95,-3.9512,-3.9562,-3.9635,-3.9655,-3.9733,-3.9618,-3.9705,-3.9762,-3.967,-3.9785,-3.979,-3.9822,-3.9963,-4.0025,-3.9974,-4.0256,-4.0162,-4.0179,-4.0185,-4.0264,-4.0296,-4.0325,-3.9947,-3.9945,-3.9944,0,0,-3.9717,-3.9734,-3.9843,-3.9865,-3.9897,-3.9882,-3.9909,-3.9926,-3.9926,-4.004,-3.9972,-4.0039,-4.0154,-4.018,-4.0208,-4.0432,-4.0378,-4.0453,-4.0583,-4.0665,-4.0692,-4.0715,-4.0796,-4.0825,-4.047,-4.0471,-4.0471,0,-3.9834,-3.9948,-3.9906,-3.9998,-4.0032,-3.9951,-4.0061,-4.0085,-4.0135,-4.016,-4.0102,-4.0244,-4.026,-4.0405,-4.0459,-4.0484,-4.0513,-4.0451,-4.0691,-4.0715,-4.0736,-4.0812,-4.0842,-4.0479,-4.0478,-4.0478,-4.0477,0,-4.009,-4.0171,-4.0255,-4.0305,-4.0348,-4.045,-4.0422,-4.0471,-4.0436,-4.0428,-4.0545,-4.0561,-4.0623,-4.0654,-4.0622,-4.0795,-4.0762,-4.0699,-4.0596,-4.0778,-4.0849,-4.0878,-4.0492,-4.0489,-4.0486,-4.0484,0,0,-4.0395,-4.0419,-4.0451,-4.0472,-4.05,-4.0561,-4.0658,-4.0718,-4.0761,-4.0797,-4.0877,-4.0975,-4.0916,-4.0948,-4.0917,-4.0989,-4.1166,-4.0916,-4.0916,-4.0963,-4.1357,-4.1406,-4.1441,-4.1129,-4.1134,-4.1139,-4.1355,0,-4.0611,-4.0778,-4.0742,-4.0906,-4.0979,-4.0902,-4.0986,-4.1012,-4.1007,-4.1068,-4.1061,-4.1131,-4.1047,-4.1066,-4.1134,-4.113,-4.1245,-4.1114,-4.1204,-4.1207,-4.12,-4.1478,-4.153,-4.1734,-4.1382,-4.1387,-4.139,0,-4.0885,-4.0932,-4.1104,-4.1118,-4.1148,-4.1224,-4.1276,-4.1335,-4.1363,-4.1353,-4.1388,-4.1343,-4.1438,-4.1333,-4.1463,-4.1375,-4.1409,-4.1413,-4.1419,-4.1428,-4.1311,-4.1495,-4.1798,-4.1829,-4.1433,-4.143,-4.1427,0,-4.1092,-4.1197,-4.1313,-4.1333,-4.1353,-4.1409,-4.142,-4.1441,-4.1479,-4.1524,-4.1548,-4.1604,-4.1635,-4.1678,-4.1649,-4.1575,-4.1785,-4.1677,-4.178,-4.1781,-4.1829,-4.1827,-4.2143,-4.1849,-4.1849,-4.1848,-4.1848,0,-4.1337,-4.1445,-4.1405,-4.1477,-4.1595,-4.1552,-4.167,-4.1672,-4.1692,-4.1762,-4.1698,-4.1765,-4.1722,-4.1785,-4.1763,-4.1874,-4.1888,-4.1883,-4.1876,-4.189,-4.1891,-4.1913,-4.1899,-4.1856,-4.1854,-4.1853,-4.1851,0,-4.1588,-4.1566,-4.1687,-4.1696,-4.17,-4.1787,-4.1794,-4.1861,-4.1849,-4.1939,-4.1957,-4.194,-4.2011,-4.1985,-4.2062,-4.2046,-4.2189,-4.2163,-4.218,-4.2174,-4.2278,-4.2269,-4.2621,-4.2665,-4.2342,-4.2345,-4.2348,0,-4.1747,-4.1829,-4.1845,-4.1888,-4.1903,-4.1972,-4.201,-4.197,-4.2012,-4.2049,-4.2111,-4.2176,-4.2227,-4.2344,-4.2338,-4.2396,-4.2371,-4.249,-4.2379,-4.239,-4.2374,-4.237,-4.2378,-4.2513,-4.2517,-4.252,-4.2522,0,-4.2032,-4.2016,-4.2074,-4.2128,-4.2175,-4.2215,-4.225,-4.2288,-4.225,-4.23,-4.2372,-4.2411,-4.2488,-4.2554,-4.2606,-4.2616,-4.2564,-4.2557,-4.2584,-4.2599,-4.2606,-4.2605,-4.2241,-4.255,-4.2547,-4.2545,-4.2543,-4.2542,-4.2243,-4.2311,-4.2333,-4.2399,-4.2421,-4.2454,-4.2517,-4.2512,-4.2571,-4.2631,-4.2603,-4.2687,-4.271,-4.2773,-4.2791,-4.2855,-4.2809,-4.2848,-4.2858,-4.2869,-4.2883,-4.2595,-4.2864,-4.2864,-4.2863,-4.2862,-4.2862,0,-4.2525,-4.2535,-4.2596,-4.2646,-4.2697,-4.2642,-4.2677,-4.2724,-4.2798,-4.2824,-4.2874,-4.2957,-4.302,-4.3018,-4.3076,-4.3128,-4.3105,-4.3144,-4.3141,-4.3144,-4.2921,-4.2892,-4.3162,-4.3162,-4.3162,-4.3162,-4.3162,-4.3161,-4.2678,-4.279,-4.2777,-4.2899,-4.2908,-4.2989,-4.3014,-4.3044,-4.3065,-4.3159,-4.3211,-4.3209,-4.3224,-4.3282,-4.3338,-4.3335,-4.336,-4.3409,-4.3398,-4.319,-4.316,-4.3132,-4.3104,-4.3414,-4.3415,-4.3616,-4.3618,-4.3619]},{"header":{"parameterUnit":"m.s-1","parameterCategory":1,"la1":30.2991,"la2":30.254,"lo1":-89.0895,"lo2":-89.0444,"dy":0.0017,"dx":0.0017,"nx":28,"ny":28,"refTime":"2023-03-13T21:00:00:Z","depth":0,"parameterNumber":3,"parameterNumberName":"V-component_of_WINDS"},"data":[0,0,0,0,0,0,0,0,0,0,0,0,0,0,0,0,0,0,0,0,0,0,0,0,0,0,0,0,0,0,0,0,0,0,0,0,0,0,0,0,0,0,0,0,0,0,0,0,0,0,0,0,0,0,0,0,0,0,-7.2343,-7.2344,0,-7.242,-7.2421,-7.2422,-7.2312,-7.2308,-7.2304,-7.2301,-7.2375,-7.2381,-7.2386,0,0,0,0,0,0,0,0,0,0,0,0,0,-7.2094,-7.21,-7.2343,-7.2344,-7.2345,-7.242,-7.2421,-7.2422,-7.2313,-7.2308,-7.2303,-7.2299,-7.2373,-7.238,-7.2387,0,0,0,0,0,0,0,0,0,0,0,0,0,-7.219,-7.2101,-7.2343,-7.2299,-7.2296,-7.242,-7.2421,-7.2422,-7.2314,-7.2308,-7.2302,-7.2297,-7.2371,-7.2379,-7.2387,-7.2555,0,0,-7.2413,-7.2417,0,0,0,0,0,0,0,0,-7.2185,-7.2199,-7.2305,-7.2303,-7.2299,-7.2351,-7.236,-7.2467,-7.2315,-7.2307,-7.2301,-7.2294,-7.2371,-7.2379,-7.2406,-7.2559,-7.2562,-7.2414,-7.2419,-7.2422,-7.2425,0,0,0,0,0,0,0,-7.2178,-7.2195,-7.2373,-7.2306,-7.2303,-7.2274,-7.2281,-7.238,-7.2371,-7.2307,-7.23,-7.2311,-7.2369,-7.2399,-7.2407,-7.2563,-7.2414,-7.2421,-7.2426,-7.2429,-7.2853,-7.2859,0,0,0,0,0,0,-7.2178,-7.219,-7.2371,-7.2375,-7.2227,-7.2283,-7.2291,-7.234,-7.2369,-7.2368,-7.2315,-7.2305,-7.2387,-7.2398,-7.2409,-7.2606,-7.2422,-7.243,-7.2435,-7.2847,-7.2855,-7.2861,0,0,0,0,0,0,-7.2173,-7.2195,-7.2367,-7.2281,-7.2301,-7.2294,-7.2349,-7.2345,-7.2374,-7.2375,-7.2373,-7.2348,-7.2383,-7.2398,-7.2519,-7.2607,-7.2434,-7.2442,-7.284,-7.2849,-7.2858,-7.3002,0,0,0,0,0,0,-7.2166,-7.2194,-7.2259,-7.2283,-7.2306,-7.2479,-7.2355,-7.235,-7.239,-7.2377,-7.2405,-7.2404,-7.238,-7.2508,-7.2528,-7.2615,-7.2448,-7.2832,-7.2844,-7.2855,-7.2989,-7.3015,-7.3037,0,0,0,0,0,-7.2158,-7.2296,-7.2263,-7.2285,-7.2388,-7.2484,-7.2496,-7.2467,-7.2397,-7.2461,-7.2462,-7.2403,-7.2594,-7.2521,-7.2543,-7.2634,-7.2826,-7.2841,-7.2854,-7.2978,-7.301,-7.3036,0,0,0,0,0,0,-7.2281,-7.2298,-7.2262,-7.2413,-7.2448,-7.2465,-7.2546,-7.2501,-7.2555,-7.2541,-7.25,-7.2507,-7.2637,-7.2648,-7.2566,-7.2796,-7.2698,-7.2717,-7.2785,-7.2815,-7.2838,-7.2833,-7.2455,0,0,0,0,0,-7.2326,-7.2404,-7.2414,-7.2546,-7.2566,-7.2553,-7.2594,-7.2568,-7.2602,-7.2616,-7.2625,-7.2659,-7.2726,-7.2771,-7.2833,-7.299,-7.2993,-7.3063,-7.3087,-7.3107,-7.3123,-7.3205,-7.3235,-7.2908,-7.2907,-7.2907,0,0,-7.2419,-7.2438,-7.249,-7.2572,-7.2596,-7.2676,-7.2566,-7.2656,-7.2715,-7.2629,-7.2744,-7.2752,-7.2787,-7.2927,-7.2988,-7.2939,-7.3215,-7.3125,-7.314,-7.3146,-7.3222,-7.3253,-7.3281,-7.2917,-7.2915,-7.2914,0,0,-7.2629,-7.2653,-7.2764,-7.2791,-7.2829,-7.2819,-7.2846,-7.2871,-7.2873,-7.2988,-7.2925,-7.2993,-7.311,-7.3137,-7.3166,-7.3385,-7.3332,-7.3406,-7.353,-7.361,-7.3636,-7.3659,-7.3735,-7.3763,-7.3423,-7.3423,-7.3423,0,-7.274,-7.286,-7.2827,-7.2921,-7.2958,-7.2885,-7.2996,-7.3022,-7.3079,-7.3104,-7.3049,-7.3193,-7.3212,-7.3355,-7.3409,-7.3435,-7.3463,-7.3402,-7.3635,-7.3658,-7.3678,-7.3751,-7.378,-7.3432,-7.3431,-7.343,-7.3429,0,-7.2993,-7.3077,-7.3162,-7.322,-7.3266,-7.3368,-7.3348,-7.3398,-7.3367,-7.3363,-7.348,-7.3499,-7.3563,-7.3595,-7.3566,-7.3735,-7.3703,-7.3642,-7.3542,-7.3719,-7.3786,-7.3814,-7.3444,-7.3441,-7.3438,-7.3436,0,0,-7.3284,-7.3321,-7.3353,-7.3377,-7.3413,-7.3476,-7.3574,-7.3637,-7.368,-7.3721,-7.38,-7.3901,-7.3844,-7.3877,-7.385,-7.392,-7.409,-7.3851,-7.3851,-7.3893,-7.4275,-7.4319,-7.4352,-7.4056,-7.4061,-7.4065,-7.4271,0,-7.3493,-7.3664,-7.3636,-7.3801,-7.3876,-7.3807,-7.3892,-7.3922,-7.392,-7.3982,-7.3978,-7.405,-7.3971,-7.399,-7.4057,-7.4056,-7.4166,-7.404,-7.4127,-7.4131,-7.412,-7.4388,-7.4436,-7.4629,-7.4297,-7.4302,-7.4305,0,-7.376,-7.3812,-7.3985,-7.4007,-7.4038,-7.4115,-7.4169,-7.4231,-7.4262,-7.4255,-7.4292,-7.4251,-7.4346,-7.4245,-7.4374,-7.4289,-7.4323,-7.4327,-7.4334,-7.434,-7.4228,-7.44,-7.4691,-7.4719,-7.4346,-7.4343,-7.434,0,-7.3953,-7.4066,-7.4183,-7.4206,-7.4236,-7.4291,-7.4305,-7.4331,-7.4371,-7.4418,-7.4443,-7.45,-7.4531,-7.4576,-7.455,-7.448,-7.4683,-7.4581,-7.4678,-7.4679,-7.4723,-7.4721,-7.5023,-7.4747,-7.4747,-7.4746,-7.4746,0,-7.4189,-7.4297,-7.427,-7.4342,-7.446,-7.4425,-7.4542,-7.4548,-7.4572,-7.4642,-7.4585,-7.4651,-7.4615,-7.4678,-7.4658,-7.4767,-7.4781,-7.4777,-7.477,-7.4782,-7.4782,-7.4802,-7.4788,-7.4754,-7.4752,-7.4751,-7.4749,0,-7.4425,-7.4412,-7.4534,-7.4552,-7.4559,-7.4645,-7.4659,-7.4725,-7.4718,-7.4808,-7.4826,-7.4815,-7.4886,-7.4866,-7.4943,-7.4929,-7.5066,-7.5043,-7.5056,-7.505,-7.5148,-7.5139,-7.5473,-7.5514,-7.5213,-7.5216,-7.5219,0,-7.4576,-7.4658,-7.4684,-7.4728,-7.4747,-7.4818,-7.4858,-7.4826,-7.487,-7.4911,-7.4972,-7.5038,-7.5089,-7.5206,-7.5203,-7.5261,-7.5238,-7.5351,-7.5246,-7.5254,-7.5238,-7.5233,-7.524,-7.5372,-7.5375,-7.5378,-7.538,0,-7.4845,-7.4834,-7.4895,-7.4954,-7.5003,-7.5047,-7.5086,-7.5124,-7.5094,-7.5146,-7.5219,-7.5259,-7.5337,-7.5403,-7.5455,-7.5467,-7.5419,-7.5413,-7.5438,-7.545,-7.5454,-7.5452,-7.5112,-7.5406,-7.5403,-7.5401,-7.54,-7.5399,-7.5042,-7.5111,-7.514,-7.5209,-7.5235,-7.5272,-7.5334,-7.5335,-7.5396,-7.5458,-7.5435,-7.5518,-7.5545,-7.561,-7.5629,-7.5692,-7.5649,-7.5686,-7.5695,-7.5704,-7.5716,-7.5445,-7.5701,-7.5701,-7.57,-7.5699,-7.5699,0,-7.5307,-7.5322,-7.5386,-7.5442,-7.5496,-7.5447,-7.5486,-7.5534,-7.5608,-7.5638,-7.569,-7.5772,-7.5835,-7.5838,-7.5896,-7.5946,-7.5925,-7.5962,-7.5957,-7.596,-7.5752,-7.5724,-7.5978,-7.5978,-7.5978,-7.5978,-7.5978,-7.5977,-7.5451,-7.5564,-7.5556,-7.568,-7.5693,-7.5776,-7.5802,-7.5835,-7.5858,-7.5954,-7.6006,-7.6008,-7.6026,-7.6085,-7.6139,-7.6138,-7.6162,-7.6207,-7.6198,-7.6003,-7.5975,-7.5949,-7.5922,-7.6213,-7.6213,-7.64,-7.6402,-7.6403]}]]